Location: Malvern Link
(52.1333°N, 2.3000°W)
Time: 07:25:47
(UTC+00:00)

ZACube-1 - Visible Passes

Search period start: 25 June 2022 00:00
Search period end: 05 July 2022 00:00
Orbit: 581 x 663 km, 97.6° (Epoch: 24 June)

Date Brightness Start Highest point End Pass type
(mag) Time Alt. Az. Time Alt. Az. Time Alt. Az.
27 Jun ? 02:39:15 10° ENE 02:40:34 11° E 02:41:51 10° ESE visible
28 Jun ? 02:55:50 10° NE 02:58:37 16° E 03:01:25 10° SE visible
03 Jul ? 02:48:58 10° NE 02:51:27 15° E 02:53:57 10° ESE visible
04 Jul ? 03:06:04 10° NE 03:09:28 21° E 03:12:52 10° SE visible
